This is the latest recevied weather packets stored in our database for station/object DH5WR-10. If no packets are shown the sender has not sent any weather packets the latest 10 day(s).
| Time | Temp. | Humidity | Pressure | Rain* | Wind** | Luminosity | Snow |
|---|---|---|---|---|---|---|---|
| 1777463538 | 16.67° C | 32% | 1021.3 hPa | - | - | - | - |
| 1777462637 | 16.11° C | 34% | 1021.5 hPa | - | - | - | - |
| 1777461737 | 16.67° C | 34% | 1021.2 hPa | - | - | - | - |
| 1777460837 | 16.11° C | 34% | 1021.3 hPa | - | - | - | - |
| 1777459937 | 16.11° C | 35% | 1021.5 hPa | - | - | - | - |
| 1777459037 | 15.56° C | 37% | 1021.5 hPa | - | - | - | - |
| 1777458136 | 15° C | 38% | 1021.5 hPa | - | - | - | - |
| 1777457236 | 15° C | 40% | 1021.5 hPa | - | - | - | - |
| 1777456336 | 14.44° C | 40% | 1021.6 hPa | - | - | - | - |
| 1777455436 | 14.44° C | 43% | 1021.6 hPa | - | - | - | - |
| 1777454536 | 13.89° C | 43% | 1021.5 hPa | - | - | - | - |
| 1777453636 | 14.44° C | 44% | 1021.6 hPa | - | - | - | - |
| 1777452735 | 12.78° C | 44% | 1021.6 hPa | - | - | - | - |
| 1777451835 | 13.33° C | 44% | 1021.5 hPa | - | - | - | - |
| 1777450935 | 12.22° C | 46% | 1021.5 hPa | - | - | - | - |
| 1777450035 | 12.22° C | 45% | 1021.5 hPa | - | - | - | - |
| 1777449135 | 11.67° C | 45% | 1021.5 hPa | - | - | - | - |
| 1777448235 | 11.11° C | 48% | 1021.4 hPa | - | - | - | - |
| 1777447335 | 11.67° C | 48% | 1021.3 hPa | - | - | - | - |
| 1777446434 | 10° C | 51% | 1021.4 hPa | - | - | - | - |
| 1777445534 | 10° C | 51% | 1021.3 hPa | - | - | - | - |
| 1777444634 | 8.89° C | 53% | 1021.3 hPa | - | - | - | - |
| 1777443734 | 9.44° C | 53% | 1021.1 hPa | - | - | - | - |
| 1777442834 | 8.33° C | 54% | 1021.1 hPa | - | - | - | - |
| 1777441933 | 8.33° C | 54% | 1021 hPa | - | - | - | - |
* Rain since midnight (hover to see other rain measurements)
** Current wind speed in m/s (hover to see current wind gust speed)